[[{"header":{"parameterUnit":"m.s-1","parameterCategory":1,"la1":30.2991,"la2":30.254,"lo1":-89.0895,"lo2":-89.0444,"dy":0.0017,"dx":0.0017,"nx":28,"ny":28,"refTime":"2025-05-23T09:00:00:Z","depth":0,"parameterNumber":2,"parameterNumberName":"U-component_of_WINDS"},"data":[0,0,0,0,0,0,0,0,0,0,0,0,0,0,0,0,0,0,0,0,0,0,0,0,0,0,0,0,0,0,0,0,0,0,0,0,0,0,0,0,0,0,0,0,0,0,0,0,0,0,0,0,0,0,0,0,0,0,0.2886,0.2887,0,0.3011,0.3013,0.3014,0.3101,0.3101,0.3102,0.3102,0.3233,0.3236,0.3238,0,0,0,0,0,0,0,0,0,0,0,0,0,0.2723,0.2725,0.2885,0.2887,0.2889,0.3011,0.3013,0.3014,0.31,0.3101,0.3102,0.3103,0.3232,0.3235,0.3239,0,0,0,0,0,0,0,0,0,0,0,0,0,0.2815,0.2726,0.2885,0.2946,0.2953,0.301,0.3013,0.3015,0.31,0.3101,0.3102,0.3103,0.3231,0.3235,0.3239,0.3246,0,0,0.3252,0.3254,0,0,0,0,0,0,0,0,0.281,0.2821,0.2936,0.2942,0.295,0.3041,0.3003,0.3092,0.31,0.3044,0.3102,0.3104,0.3168,0.3178,0.3199,0.3252,0.3258,0.3253,0.3255,0.3257,0.3258,0,0,0,0,0,0,0,0.2804,0.2816,0.2935,0.2937,0.2946,0.2968,0.2983,0.302,0.3099,0.3049,0.3056,0.307,0.3172,0.3195,0.3203,0.326,0.3252,0.3256,0.3259,0.3261,0.3328,0.3328,0,0,0,0,0,0,0.2787,0.281,0.2931,0.2939,0.2881,0.297,0.2986,0.3011,0.3099,0.3114,0.3069,0.3073,0.3187,0.3198,0.3208,0.3224,0.3257,0.3261,0.3264,0.3329,0.3328,0.3327,0,0,0,0,0,0,0.2783,0.2797,0.2926,0.2877,0.2895,0.2972,0.2999,0.3013,0.3036,0.3114,0.3129,0.3077,0.3188,0.3202,0.3237,0.323,0.3263,0.3267,0.333,0.3329,0.3328,0.3256,0,0,0,0,0,0,0.2778,0.2795,0.2798,0.2876,0.2897,0.2952,0.2999,0.3015,0.3042,0.305,0.3126,0.3139,0.319,0.323,0.3241,0.3237,0.327,0.3331,0.333,0.3328,0.3259,0.3252,0.3246,0,0,0,0,0,0.2772,0.2772,0.2798,0.2812,0.2902,0.2951,0.2963,0.3021,0.3041,0.3046,0.3096,0.3137,0.3228,0.3233,0.3246,0.3243,0.3332,0.333,0.3328,0.3262,0.3253,0.3246,0,0,0,0,0,0,0.2692,0.2784,0.2813,0.2838,0.2886,0.2965,0.2972,0.301,0.3054,0.3059,0.313,0.3146,0.3174,0.3212,0.3215,0.3256,0.3285,0.3286,0.323,0.3223,0.3217,0.3208,0.3274,0,0,0,0,0,0.2677,0.2708,0.2787,0.2802,0.2825,0.2894,0.2917,0.2958,0.3011,0.3032,0.3085,0.3136,0.3176,0.3201,0.3243,0.3264,0.3284,0.3269,0.3263,0.3257,0.3257,0.3274,0.3269,0.3322,0.3322,0.3322,0,0,0.2646,0.27,0.2716,0.2787,0.2829,0.2862,0.2911,0.2942,0.2967,0.3037,0.3074,0.3114,0.3176,0.3204,0.322,0.3237,0.3247,0.3255,0.325,0.3253,0.3272,0.3267,0.3262,0.332,0.3321,0.3321,0,0,0.2608,0.2651,0.2669,0.2711,0.2774,0.282,0.2825,0.2899,0.2929,0.2966,0.302,0.3052,0.3119,0.3161,0.3191,0.3171,0.321,0.3182,0.3149,0.3165,0.3161,0.3158,0.3152,0.3149,0.3182,0.3182,0.3182,0,0.2562,0.2612,0.2674,0.2703,0.2734,0.2798,0.2818,0.2855,0.2929,0.2949,0.2967,0.3055,0.31,0.3141,0.3136,0.3157,0.3166,0.3174,0.3156,0.3154,0.3151,0.3147,0.3145,0.3178,0.3178,0.3179,0.3179,0,0.2554,0.2588,0.2596,0.2665,0.2697,0.2721,0.2787,0.2812,0.285,0.2895,0.2934,0.2991,0.3046,0.3058,0.3096,0.3105,0.3114,0.3142,0.3174,0.3142,0.3139,0.3138,0.3173,0.3174,0.3175,0.3176,0,0,0.2468,0.2573,0.2575,0.2608,0.2683,0.2712,0.2739,0.2793,0.2814,0.2862,0.2889,0.2945,0.2973,0.3008,0.305,0.3064,0.3046,0.3092,0.3094,0.3083,0.3063,0.3042,0.3039,0.3072,0.3072,0.3072,0.3058,0,0.2443,0.2496,0.2553,0.2587,0.2621,0.2683,0.2708,0.2757,0.28,0.2836,0.2884,0.2923,0.2956,0.2978,0.2993,0.3045,0.3044,0.3046,0.31,0.3101,0.3084,0.3037,0.3015,0.2998,0.3057,0.3057,0.3057,0,0.242,0.2467,0.2504,0.2578,0.2594,0.2615,0.267,0.2703,0.2761,0.2792,0.283,0.2876,0.291,0.2937,0.2986,0.2987,0.3012,0.304,0.3041,0.305,0.3078,0.3046,0.2995,0.2993,0.3056,0.3056,0.3056,0,0.2356,0.2428,0.246,0.2487,0.2573,0.2587,0.2624,0.2683,0.2712,0.2761,0.2781,0.2832,0.2861,0.29,0.2959,0.2973,0.3003,0.3034,0.3031,0.303,0.3036,0.3035,0.2989,0.3048,0.3049,0.3049,0.3049,0,0.2323,0.2344,0.2433,0.2453,0.2479,0.2544,0.2568,0.2611,0.2663,0.2694,0.275,0.2778,0.2854,0.289,0.2937,0.2972,0.2984,0.3011,0.3023,0.3007,0.3003,0.3025,0.3029,0.3048,0.3048,0.3048,0.3048,0,0.2256,0.2317,0.2356,0.2436,0.2456,0.2472,0.254,0.2563,0.2609,0.2647,0.266,0.2733,0.278,0.2842,0.2908,0.2939,0.2969,0.2987,0.2949,0.2957,0.2952,0.2952,0.292,0.292,0.2976,0.2976,0.2975,0,0.2232,0.2249,0.2331,0.2355,0.2391,0.2429,0.246,0.2525,0.2555,0.2624,0.2638,0.2689,0.2733,0.2805,0.2865,0.2916,0.2937,0.2922,0.2945,0.2929,0.294,0.2938,0.2942,0.2917,0.2916,0.2915,0.2915,0,0.2182,0.2212,0.2254,0.2307,0.2342,0.2387,0.2434,0.2451,0.2527,0.2558,0.2606,0.264,0.2708,0.2759,0.2818,0.2857,0.2899,0.2907,0.291,0.2894,0.2872,0.2886,0.2936,0.2908,0.2908,0.2909,0.2909,0.291,0.2138,0.2157,0.2218,0.2264,0.2307,0.235,0.2376,0.2426,0.2467,0.2528,0.2564,0.2611,0.2671,0.2755,0.2792,0.2831,0.2848,0.2851,0.2852,0.2852,0.2847,0.2864,0.2842,0.2842,0.2843,0.2843,0.2843,0,0.2093,0.2136,0.2177,0.2242,0.2278,0.2314,0.2369,0.2397,0.2438,0.249,0.2533,0.2589,0.2639,0.2703,0.2757,0.2776,0.2797,0.2788,0.2789,0.2798,0.2828,0.2822,0.2771,0.2771,0.2771,0.2771,0.2771,0.2771,0.2075,0.2111,0.2147,0.2206,0.2249,0.2295,0.2324,0.2365,0.2407,0.2468,0.2509,0.255,0.2608,0.2667,0.2715,0.2733,0.2751,0.2737,0.276,0.2788,0.2795,0.2801,0.2795,0.274,0.274,0.2727,0.2727,0.2726]},{"header":{"parameterUnit":"m.s-1","parameterCategory":1,"la1":30.2991,"la2":30.254,"lo1":-89.0895,"lo2":-89.0444,"dy":0.0017,"dx":0.0017,"nx":28,"ny":28,"refTime":"2025-05-23T09:00:00:Z","depth":0,"parameterNumber":3,"parameterNumberName":"V-component_of_WINDS"},"data":[0,0,0,0,0,0,0,0,0,0,0,0,0,0,0,0,0,0,0,0,0,0,0,0,0,0,0,0,0,0,0,0,0,0,0,0,0,0,0,0,0,0,0,0,0,0,0,0,0,0,0,0,0,0,0,0,0,0,3.5039,3.5039,0,3.5059,3.506,3.506,3.5096,3.5097,3.5098,3.5099,3.5114,3.5114,3.5113,0,0,0,0,0,0,0,0,0,0,0,0,0,3.5029,3.5029,3.5039,3.5039,3.504,3.5059,3.506,3.506,3.5096,3.5097,3.5098,3.5099,3.5114,3.5114,3.5113,0,0,0,0,0,0,0,0,0,0,0,0,0,3.504,3.5029,3.5039,3.506,3.5063,3.5059,3.506,3.506,3.5096,3.5097,3.5098,3.5099,3.5114,3.5114,3.5113,3.5089,0,0,3.5112,3.5112,0,0,0,0,0,0,0,0,3.5039,3.504,3.5057,3.5059,3.5061,3.5077,3.5062,3.507,3.5096,3.5083,3.5099,3.51,3.51,3.5101,3.5102,3.509,3.5091,3.5112,3.5112,3.5112,3.5112,0,0,0,0,0,0,0,3.5038,3.5039,3.5047,3.5057,3.506,3.5068,3.5071,3.5063,3.5085,3.5084,3.5087,3.5089,3.5102,3.5103,3.5103,3.5091,3.5112,3.5112,3.5112,3.5111,3.5062,3.5061,0,0,0,0,0,0,3.5035,3.5039,3.5046,3.5048,3.5053,3.5067,3.507,3.5071,3.5086,3.5089,3.5088,3.5091,3.5103,3.5103,3.5104,3.5078,3.5112,3.5111,3.5111,3.5063,3.5061,3.506,0,0,0,0,0,0,3.5035,3.5036,3.5046,3.5044,3.5046,3.5066,3.5066,3.507,3.5071,3.5089,3.5092,3.5086,3.5104,3.5104,3.5093,3.5079,3.5111,3.5111,3.5064,3.5062,3.5061,3.5025,0,0,0,0,0,0,3.5034,3.5035,3.5027,3.5044,3.5046,3.5036,3.5065,3.507,3.5071,3.5075,3.5087,3.509,3.5105,3.5094,3.5093,3.5079,3.511,3.5065,3.5063,3.5061,3.5027,3.5022,3.5018,0,0,0,0,0,3.5034,3.5014,3.5026,3.5027,3.5036,3.5035,3.5036,3.5055,3.507,3.5061,3.5073,3.5089,3.5081,3.5092,3.5092,3.5077,3.5066,3.5064,3.5062,3.5029,3.5023,3.5018,0,0,0,0,0,0,3.4992,3.5017,3.503,3.5015,3.5023,3.5041,3.5031,3.5047,3.5049,3.5052,3.5074,3.5076,3.5063,3.5069,3.5082,3.5056,3.5076,3.5074,3.5052,3.5046,3.5041,3.504,3.511,0,0,0,0,0,3.4982,3.498,3.5001,3.4986,3.499,3.5009,3.501,3.5024,3.5032,3.5035,3.5045,3.5051,3.505,3.5048,3.5048,3.5029,3.5032,3.5018,3.5014,3.501,3.5007,3.4998,3.4993,3.5052,3.5052,3.5052,0,0,3.4959,3.4973,3.497,3.4978,3.4986,3.4983,3.5012,3.5007,3.5005,3.5033,3.5025,3.5033,3.5041,3.5026,3.502,3.5031,3.4991,3.5006,3.5003,3.5002,3.4995,3.499,3.4985,3.5051,3.5051,3.5051,0,0,3.4917,3.4927,3.4916,3.4924,3.4937,3.4951,3.4948,3.4964,3.4971,3.4964,3.4986,3.4983,3.498,3.4986,3.4988,3.4951,3.4967,3.495,3.4924,3.4916,3.4911,3.4907,3.4895,3.489,3.4947,3.4947,3.4947,0,3.4887,3.4885,3.4908,3.4903,3.4907,3.4935,3.4925,3.493,3.4941,3.4942,3.4955,3.4954,3.4961,3.4949,3.494,3.4941,3.4938,3.4948,3.491,3.4907,3.4903,3.4891,3.4887,3.4945,3.4945,3.4946,3.4946,0,3.4848,3.4846,3.4836,3.4849,3.4851,3.4843,3.4864,3.4864,3.4878,3.4891,3.4883,3.4893,3.4897,3.4895,3.4908,3.4885,3.4891,3.4907,3.4928,3.4895,3.4885,3.488,3.4942,3.4943,3.4944,3.4944,0,0,3.4778,3.4806,3.4802,3.4809,3.4826,3.4824,3.4818,3.4824,3.4823,3.483,3.4825,3.4823,3.4839,3.4841,3.4855,3.4848,3.482,3.4865,3.4865,3.4856,3.4796,3.4785,3.4779,3.4831,3.483,3.4829,3.4796,0,3.4739,3.4731,3.4754,3.474,3.4739,3.4768,3.4762,3.4772,3.4784,3.4784,3.4797,3.4796,3.4816,3.4818,3.4812,3.4824,3.4808,3.4827,3.4826,3.4825,3.4823,3.4773,3.4761,3.4728,3.4792,3.4791,3.479,0,3.4692,3.47,3.4687,3.4707,3.4708,3.4703,3.4711,3.4711,3.4723,3.4732,3.4737,3.4754,3.4749,3.477,3.4763,3.4776,3.4777,3.4783,3.4782,3.4783,3.4806,3.4773,3.4718,3.4714,3.4784,3.4785,3.4785,0,3.4643,3.465,3.4644,3.4649,3.4672,3.4668,3.4677,3.469,3.4693,3.4699,3.4702,3.4706,3.4709,3.4712,3.4731,3.4744,3.4722,3.4744,3.4729,3.4729,3.4722,3.4723,3.4668,3.4723,3.4723,3.4723,3.4723,0,3.4598,3.4589,3.4623,3.4619,3.461,3.4636,3.4626,3.4637,3.4649,3.4648,3.4672,3.467,3.4695,3.4695,3.4709,3.4702,3.4703,3.471,3.4714,3.4708,3.4707,3.4708,3.4711,3.4722,3.4722,3.4722,3.4723,0,3.4541,3.4563,3.4559,3.4582,3.4588,3.4581,3.46,3.4597,3.4612,3.461,3.4611,3.4634,3.4636,3.4655,3.466,3.467,3.4657,3.4665,3.4654,3.4657,3.4641,3.4642,3.4585,3.4579,3.4638,3.4637,3.4636,0,3.451,3.4504,3.4529,3.4531,3.454,3.4542,3.4546,3.4571,3.4574,3.4589,3.4584,3.4588,3.4593,3.4595,3.4611,3.4616,3.4624,3.4604,3.4625,3.462,3.4625,3.4625,3.4625,3.4599,3.4599,3.4598,3.4597,0,3.4453,3.4466,3.4471,3.4482,3.4487,3.4495,3.4505,3.4505,3.4533,3.4534,3.4538,3.4543,3.455,3.4554,3.4563,3.4571,3.4589,3.4591,3.4588,3.4582,3.4576,3.458,3.4642,3.4592,3.4593,3.4593,3.4593,3.4593,3.4409,3.4406,3.4424,3.443,3.4441,3.445,3.445,3.4466,3.447,3.448,3.4494,3.4496,3.451,3.4523,3.453,3.4532,3.4542,3.4537,3.4536,3.4535,3.4532,3.4576,3.4533,3.4533,3.4533,3.4534,3.4534,0,3.4354,3.4368,3.4374,3.4389,3.4393,3.4413,3.4425,3.4428,3.443,3.4442,3.4448,3.4453,3.4458,3.4476,3.4482,3.448,3.4489,3.4481,3.4481,3.4483,3.4522,3.4524,3.4474,3.4474,3.4474,3.4474,3.4474,3.4474,3.4326,3.4324,3.4338,3.4341,3.4355,3.4359,3.4365,3.4373,3.4384,3.4389,3.4395,3.4407,3.4422,3.443,3.4436,3.4441,3.4442,3.4432,3.4439,3.4475,3.448,3.4486,3.4488,3.4432,3.4432,3.4401,3.4401,3.4401]}]]